sat.trackr.live / text

‹ back to catalog

STARLINK-3779

NORAD 52281 · 2022-041W

PAYLOAD ACTIVE UNKNOWN

§ Identity

Operator
Country
US
Launch date
2022-04-21
Launch site
AFETR
Launch vehicle
Mass (kg)
RCS (m²)

Purposes: comms

External: N2YO · Heavens-Above · Gunter

§ Orbital elements

Epoch: 2026-05-25T02:43:22.128384Z

Period
95.44 min
Inclination
53.2131°
Eccentricity
0.0001276
Mean motion
15.08845773 rev/d
Perigee alt
538.8 km
Apogee alt
540.6 km
Semi-major
6,917.9 km
B*
-5.7724e-5
RAAN
126.0390°
Arg perigee
46.1185°
Mean anomaly
313.9912°
Rev number
22,590

§ Raw data

STARLINK-37791 52281U 22041W   26145.11345056 -.00001207  00000+0 -57724-4 0  99902 52281  53.2131 126.0390 0001276  46.1185 313.9912 15.08845773225901

JSON: /api/v1/satellites/52281 · /tle

For live sub-satellite position, see the globe view (requires WebGL).

§ Visibility from observer

Set your observer location to see the next 7 days of passes ≥ 10°. The values pass through the URL so the page stays shareable.

No JS? Fill the form by hand. The geolocation button needs JavaScript.